Orbital Elements at Epoch 2459000.5 (2020-May-31.0) TDB
Reference: JPL 20 (heliocentric ecliptic J2000)
Element | Value | Uncertainty (1-sigma) | Units |
e | .05386592735786608 | 3.669e-08 | |
a | 2.710172312145691 | 1.6015e-08 | au |
q | 2.564186367252351 | 9.8643e-08 | au |
i | 2.75000936394603 | 4.3487e-06 | deg |
node | 302.7690276034022 | 0.0001099 | deg |
peri | 164.1421507572685 | 0.00012101 | deg |
M | 161.0795684971628 | 5.0855e-05 | deg |
tp | 2458271.325051245428 (2018-Jun-01.82505125) | 0.00022955 | TDB |
period | 1629.647906315752 4.46 | 1.4445e-05 3.955e-08 | d yr |
n | .2209066133885783 | 1.9581e-09 | deg/d |
Q | 2.85615825703903 | 1.6878e-08 | au |
|
| | Orbit Determination Parameters
Additional Information
|